FW9229 Weather Reports


Display with metric or nautical units.
time (UTC)temp
F
wind
direction
speed
MPH
gust
MPH
rain 1hr
in
rain 24hr
in
rain mn
in
humidity
%
barometer
mb
20240717234514 83 140 2.0 8.0 0.00 0.02 0.02 75 1014.5
20240717234012 83 0 1.0 5.0 0.00 0.02 0.02 76 1014.5
20240717233517 83 191 1.0 5.0 0.00 0.02 0.02 76 1014.5
20240717233020 83 152 1.0 6.0 0.00 0.02 0.02 77 1014.6
20240717232512 83 133 0.0 6.0 0.00 0.02 0.02 77 1014.6
20240717232013 83 146 1.0 4.0 0.00 0.02 0.02 78 1014.8
20240717231515 83 0 1.0 5.0 0.00 0.02 0.02 79 1014.9
20240717231014 83 0 0.0 5.0 0.00 0.02 0.02 79 1015.0
20240717230516 83 0 0.0 5.0 0.00 0.02 0.02 79 1015.0
20240717230015 83 211 0.0 5.0 0.00 0.02 0.02 80 1015.1
20240717225513 83 181 2.0 5.0 0.00 0.02 0.02 80 1015.1
20240717225012 83 168 0.0 2.0 0.00 0.02 0.02 81 1015.2
20240717224518 83 0 0.0 2.0 0.00 0.02 0.02 81 1015.2
20240717224014 82 0 0.0 2.0 0.00 0.02 0.02 81 1015.3
20240717223516 82 168 0.0 2.0 0.01 0.02 0.02 81 1015.3
20240717223014 82 0 0.0 2.0 0.01 0.02 0.02 81 1015.3
20240717222513 83 0 0.0 2.0 0.01 0.02 0.02 82 1015.4
20240717222013 82 0 0.0 3.0 0.01 0.02 0.02 82 1015.4
20240717221518 83 0 0.0 3.0 0.01 0.02 0.02 82 1015.4
20240717221014 83 0 0.0 2.0 0.01 0.02 0.02 83 1015.4
20240717220514 83 0 0.0 4.0 0.01 0.02 0.02 83 1015.5
20240717220014 83 124 0.0 4.0 0.01 0.02 0.02 84 1015.4
20240717215513 83 0 0.0 4.0 0.01 0.02 0.02 84 1015.3
20240717215012 83 0 0.0 4.0 0.01 0.02 0.02 85 1015.3
20240717214515 83 0 0.0 0.0 0.01 0.02 0.02 85 1015.3
20240717214015 83 0 0.0 0.0 0.01 0.02 0.02 85 1015.2
20240717213514 83 0 0.0 0.0 0.00 0.01 0.01 84 1015.2
20240717213014 83 0 0.0 0.0 0.00 0.01 0.01 85 1015.2
20240717212513 83 0 0.0 0.0 0.00 0.01 0.01 84 1015.1
20240717212014 83 0 0.0 0.0 0.00 0.01 0.01 84 1015.1
20240717211524 83 0 0.0 0.0 0.00 0.01 0.01 83 1015.1
20240717211013 83 0 0.0 0.0 0.00 0.01 0.01 83 1015.0
20240717210513 83 0 0.0 0.0 0.00 0.01 0.01 83 1015.1
20240717210014 83 0 0.0 0.0 0.00 0.01 0.01 82 1015.2
20240717205513 83 0 0.0 0.0 0.00 0.01 0.01 82 1015.2
20240717205013 83 0 0.0 0.0 0.00 0.01 0.01 83 1015.4
20240717204516 83 0 0.0 0.0 0.00 0.01 0.01 83 1015.5
20240717204013 83 0 0.0 0.0 0.00 0.01 0.01 82 1015.5
20240717203512 83 0 0.0 0.0 0.00 0.01 0.01 82 1015.5
20240717203015 83 0 0.0 0.0 0.00 0.01 0.01 83 1015.6
20240717202514 83 0 0.0 0.0 0.00 0.01 0.01 82 1015.5
20240717202014 83 0 0.0 0.0 0.00 0.01 0.01 82 1015.2
20240717201529 83 0 0.0 0.0 0.00 0.01 0.01 81 1015.1
20240717201010 83 0 0.0 0.0 0.00 0.01 0.01 81 1015.0
20240717200513 83 0 0.0 2.0 0.00 0.01 0.01 81 1014.9
20240717200019 83 0 0.0 2.0 0.00 0.01 0.01 81 1014.7
20240717195514 83 0 0.0 2.0 0.00 0.01 0.01 81 1014.3
20240717194517 83 0 0.0 0.0 0.00 0.01 0.01 79 1014.2
20240717194013 84 0 0.0 0.0 0.00 0.01 0.01 80 1014.4
20240717193514 84 0 0.0 0.0 0.01 0.01 0.01 80 1014.8
20240717193020 84 0 0.0 0.0 0.01 0.01 0.01 80 1015.1
20240717192512 84 0 0.0 0.0 0.01 0.01 0.01 79 1015.0
20240717192013 84 0 0.0 1.0 0.01 0.01 0.01 78 1015.2
20240717191533 84 0 0.0 3.0 0.01 0.01 0.01 78 1015.3
20240717191013 84 0 0.0 3.0 0.01 0.01 0.01 77 1015.1
20240717190514 84 25 0.0 3.0 0.01 0.01 0.01 78 1014.9
20240717190016 85 0 0.0 2.0 0.01 0.01 0.01 78 1014.9
20240717185514 85 0 0.0 3.0 0.01 0.01 0.01 77 1015.0
20240717185010 86 0 0.0 3.0 0.01 0.01 0.01 76 1015.3
20240717184535 87 0 0.0 4.0 0.01 0.01 0.01 76 1015.7
20240717184011 87 0 1.0 4.0 0.01 0.01 0.01 76 1015.7
20240717183514 88 333 0.0 9.0 0.00 0.00 0.00 72 1015.7
20240717183027 89 12 2.0 9.0 0.00 0.00 0.00 70 1015.9
20240717182512 89 342 1.0 5.0 0.00 0.00 0.00 67 1016.0
20240717182010 89 341 1.0 5.0 0.00 0.00 0.00 67 1016.2
20240717181517 89 0 0.0 5.0 0.00 0.00 0.00 66 1016.2
20240717181014 90 0 0.0 5.0 0.00 0.00 0.00 66 1016.2
20240717180513 90 0 0.0 4.0 0.00 0.00 0.00 67 1016.2
20240717180013 90 0 0.0 3.0 0.00 0.00 0.00 66 1016.2
20240717175513 90 0 0.0 3.0 0.00 0.00 0.00 66 1016.1
20240717175014 90 0 0.0 1.0 0.00 0.00 0.00 66 1016.0
20240717174516 90 0 0.0 1.0 0.00 0.00 0.00 66 1015.8
20240717174013 90 0 0.0 2.0 0.00 0.00 0.00 66 1015.7
20240717173514 90 0 0.0 2.0 0.00 0.00 0.00 66 1015.8
20240717173013 90 197 0.0 1.0 0.00 0.00 0.00 65 1015.8
20240717172513 90 0 0.0 3.0 0.00 0.00 0.00 65 1015.8
20240717172012 90 195 0.0 3.0 0.00 0.00 0.00 66 1015.9
20240717171518 90 0 0.0 6.0 0.00 0.00 0.00 66 1015.9
20240717171021 90 206 0.0 6.0 0.00 0.00 0.00 66 1015.9
20240717170514 90 0 0.0 3.0 0.00 0.00 0.00 66 1015.9
20240717170014 90 0 1.0 3.0 0.00 0.00 0.00 65 1015.9
20240717165513 90 0 0.0 2.0 0.00 0.00 0.00 66 1015.9
20240717165016 90 0 0.0 2.0 0.00 0.00 0.00 67 1015.9
20240717164516 90 216 0.0 1.0 0.00 0.00 0.00 66 1015.9
20240717164015 90 0 0.0 3.0 0.00 0.00 0.00 66 1015.9
20240717163513 90 0 0.0 5.0 0.00 0.00 0.00 66 1015.8
20240717163013 90 0 0.0 5.0 0.00 0.00 0.00 66 1015.8
20240717162513 90 0 0.0 2.0 0.00 0.00 0.00 66 1015.7
20240717162013 90 0 0.0 4.0 0.00 0.00 0.00 65 1015.6
20240717161515 90 0 0.0 4.0 0.00 0.00 0.00 66 1015.6
20240717161017 90 216 1.0 7.0 0.00 0.00 0.00 67 1015.6
20240717160513 89 0 1.0 7.0 0.00 0.00 0.00 67 1015.6
20240717160013 89 0 1.0 6.0 0.00 0.00 0.00 68 1015.5
20240717155513 89 25 1.0 6.0 0.00 0.00 0.00 68 1015.4
20240717155012 89 227 1.0 6.0 0.00 0.00 0.00 69 1015.4
20240717154516 88 191 0.0 6.0 0.00 0.00 0.00 69 1015.4
20240717154014 88 204 1.0 6.0 0.00 0.00 0.00 67 1015.3
20240717153511 89 0 1.0 5.0 0.00 0.00 0.00 68 1015.5
20240717153017 89 298 0.0 7.0 0.00 0.00 0.00 68 1015.3
20240717152513 89 170 0.0 7.0 0.00 0.00 0.00 68 1015.4
20240717152013 89 0 0.0 4.0 0.00 0.00 0.00 68 1015.4
20240717151516 89 242 0.0 7.0 0.00 0.00 0.00 69 1015.3
20240717151014 88 170 1.0 7.0 0.00 0.00 0.00 69 1015.2
20240717150513 88 0 0.0 4.0 0.00 0.00 0.00 70 1015.1
20240717150014 88 206 0.0 8.0 0.00 0.00 0.00 70 1015.1
20240717145513 88 222 1.0 8.0 0.00 0.00 0.00 70 1015.1
20240717145013 88 227 1.0 8.0 0.00 0.00 0.00 70 1015.1
20240717144516 87 0 2.0 8.0 0.00 0.00 0.00 72 1015.0
20240717144013 87 0 0.0 7.0 0.00 0.00 0.00 72 1015.0
20240717143513 87 148 3.0 7.0 0.00 0.00 0.00 72 1015.0
20240717143024 86 212 3.0 8.0 0.00 0.00 0.00 73 1014.8
20240717142513 86 0 0.0 8.0 0.00 0.00 0.00 73 1014.9
20240717142014 86 204 1.0 4.0 0.00 0.00 0.00 73 1015.0
20240717141517 85 0 1.0 4.0 0.00 0.00 0.00 75 1015.1
20240717141010 85 0 1.0 4.0 0.00 0.00 0.00 74 1015.1
20240717140513 85 0 0.0 8.0 0.00 0.00 0.00 75 1015.1
20240717140016 85 199 2.0 8.0 0.00 0.00 0.00 76 1015.1
20240717135516 84 210 1.0 8.0 0.00 0.00 0.00 76 1015.2
20240717135015 84 204 0.0 8.0 0.00 0.00 0.00 76 1015.1
20240717134524 84 0 0.0 5.0 0.00 0.00 0.00 76 1015.1
20240717134011 84 229 2.0 7.0 0.00 0.00 0.00 76 1015.1
20240717133515 84 0 2.0 7.0 0.00 0.00 0.00 76 1015.1
20240717133014 84 211 3.0 7.0 0.00 0.00 0.00 76 1015.0
20240717132512 84 209 2.0 7.0 0.00 0.00 0.00 76 1015.1
20240717132012 84 221 2.0 7.0 0.00 0.00 0.00 76 1015.2
20240717131513 84 213 1.0 7.0 0.00 0.00 0.00 77 1015.1
20240717131011 84 0 0.0 4.0 0.00 0.00 0.00 77 1015.1
20240717130513 83 0 0.0 4.0 0.00 0.00 0.00 77 1015.2
20240717130022 83 212 1.0 4.0 0.00 0.00 0.00 77 1015.3
20240717125513 83 0 0.0 3.0 0.00 0.00 0.00 77 1015.1
20240717125015 83 211 0.0 3.0 0.00 0.00 0.00 77 1015.2
20240717124516 83 0 0.0 3.0 0.00 0.00 0.00 78 1015.3
20240717124011 83 0 0.0 4.0 0.00 0.00 0.00 77 1015.2
20240717123513 83 0 0.0 5.0 0.00 0.00 0.00 77 1015.0
20240717123015 83 0 1.0 6.0 0.00 0.00 0.00 77 1015.1
20240717122511 83 0 1.0 6.0 0.00 0.00 0.00 77 1015.0
20240717122012 83 0 0.0 3.0 0.00 0.00 0.00 77 1015.1
20240717121515 83 0 0.0 6.0 0.00 0.00 0.00 77 1014.9
20240717121012 83 213 2.0 6.0 0.00 0.00 0.00 77 1015.0
20240717120514 83 0 0.0 7.0 0.00 0.00 0.00 76 1014.9
20240717120014 83 208 1.0 7.0 0.00 0.00 0.00 77 1014.9
20240717115516 83 216 3.0 7.0 0.00 0.00 0.00 76 1014.7
20240717115015 83 0 1.0 5.0 0.00 0.00 0.00 76 1014.8
20240717114519 83 0 0.0 5.0 0.00 0.00 0.00 76 1014.9
20240717114011 83 0 0.0 6.0 0.00 0.00 0.00 76 1015.0
20240717113512 84 0 0.0 6.0 0.00 0.00 0.00 76 1015.0
20240717113016 84 324 1.0 5.0 0.00 0.00 0.00 75 1015.1
20240717112513 84 197 0.0 3.0 0.00 0.00 0.00 75 1015.0
20240717112013 84 0 0.0 4.0 0.00 0.00 0.00 74 1015.0
20240717111515 84 0 0.0 4.0 0.00 0.00 0.00 74 1014.6
20240717111011 84 0 0.0 9.0 0.00 0.00 0.00 74 1014.4
20240717110512 84 0 2.0 9.0 0.00 0.00 0.00 74 1014.2
20240717110014 84 0 0.0 8.0 0.00 0.00 0.00 74 1014.0
20240717105511 84 0 2.0 8.0 0.00 0.00 0.00 74 1014.0
20240717105012 85 0 0.0 4.0 0.00 0.00 0.00 73 1014.1
20240717104515 85 0 0.0 5.0 0.00 0.00 0.00 72 1014.0
20240717104011 85 228 1.0 5.0 0.00 0.00 0.00 72 1014.0
20240717103514 85 222 0.0 7.0 0.00 0.00 0.00 72 1013.9
20240717103016 85 216 2.0 7.0 0.00 0.00 0.00 72 1013.9
20240717102513 85 0 0.0 5.0 0.00 0.00 0.00 72 1014.0
20240717102014 85 200 1.0 8.0 0.00 0.00 0.00 72 1013.8
20240717101514 85 222 3.0 8.0 0.00 0.00 0.00 71 1013.6
20240717101015 85 183 3.0 8.0 0.00 0.00 0.00 71 1013.8
20240717100511 85 225 1.0 6.0 0.00 0.00 0.00 71 1013.8
20240717100019 85 0 1.0 6.0 0.00 0.00 0.00 71 1013.9
20240717095512 85 166 1.0 7.0 0.00 0.00 0.00 71 1013.9
20240717095011 85 224 2.0 8.0 0.00 0.00 0.00 71 1013.8
20240717094519 85 250 3.0 11.0 0.00 0.00 0.00 71 1013.8
20240717094012 85 209 2.0 11.0 0.00 0.00 0.00 71 1013.8
20240717093514 85 221 0.0 8.0 0.00 0.00 0.00 71 1013.8
20240717093015 85 224 2.0 10.0 0.00 0.00 0.00 71 1013.8
20240717092511 85 230 2.0 10.0 0.00 0.00 0.00 71 1013.9
20240717092015 85 187 2.0 9.0 0.00 0.00 0.00 71 1013.9
20240717091517 85 245 2.0 9.0 0.00 0.00 0.00 70 1013.8
20240717091012 85 198 3.0 9.0 0.00 0.00 0.00 70 1013.8
20240717090514 86 0 1.0 6.0 0.00 0.00 0.00 70 1013.7
20240717090014 86 229 2.0 7.0 0.00 0.00 0.00 70 1013.7
20240717085511 86 231 2.0 9.0 0.00 0.00 0.00 70 1013.8
20240717085011 86 189 2.0 9.0 0.00 0.00 0.00 70 1013.7
20240717084513 86 220 2.0 7.0 0.00 0.00 0.00 70 1013.7
20240717084022 86 210 2.0 13.0 0.00 0.00 0.00 70 1013.7
20240717083515 86 249 3.0 13.0 0.00 0.00 0.00 70 1013.6
20240717083015 86 222 2.0 10.0 0.00 0.00 0.00 69 1013.7
20240717082512 86 210 4.0 10.0 0.00 0.00 0.00 69 1013.6
20240717082012 86 183 3.0 8.0 0.00 0.00 0.00 69 1013.6
20240717081514 86 209 3.0 10.0 0.00 0.00 0.00 69 1013.6
20240717081011 86 223 2.0 10.0 0.00 0.00 0.00 69 1013.5
20240717080511 86 212 2.0 7.0 0.00 0.00 0.00 68 1013.4
20240717080016 86 203 3.0 8.0 0.00 0.00 0.00 68 1013.2
20240717075511 86 216 1.0 8.0 0.00 0.00 0.00 68 1013.2
20240717075011 86 209 1.0 7.0 0.00 0.00 0.00 68 1013.1
20240717074516 86 195 1.0 7.0 0.00 0.00 0.00 68 1013.1
20240717074012 86 0 0.0 7.0 0.00 0.00 0.00 68 1013.0
20240717073516 86 191 1.0 8.0 0.00 0.00 0.00 68 1013.0
20240717073018 86 233 2.0 9.0 0.00 0.00 0.00 67 1012.9
20240717072512 86 212 3.0 9.0 0.00 0.00 0.00 67 1012.9
20240717072013 86 0 2.0 7.0 0.00 0.00 0.00 67 1012.9
20240717071523 86 196 1.0 5.0 0.00 0.00 0.00 67 1012.9
20240717071013 86 195 1.0 6.0 0.00 0.00 0.00 67 1012.8
20240717070512 86 242 2.0 7.0 0.00 0.00 0.00 66 1012.8
20240717070019 87 170 3.0 9.0 0.00 0.00 0.00 66 1012.8
20240717065513 87 198 3.0 9.0 0.00 0.00 0.00 66 1012.8
20240717065012 87 0 1.0 8.0 0.00 0.00 0.00 66 1012.8
20240717064519 87 199 2.0 9.0 0.00 0.00 0.00 66 1012.8
20240717064011 87 160 3.0 9.0 0.00 0.00 0.00 65 1012.8
20240717063511 87 0 2.0 7.0 0.00 0.00 0.00 66 1012.9
20240717063017 87 0 3.0 9.0 0.00 0.00 0.00 65 1013.0
20240717062514 87 208 2.0 9.0 0.00 0.00 0.00 65 1012.9
20240717062012 87 0 1.0 11.0 0.00 0.00 0.00 65 1012.9
20240717061533 87 236 3.0 11.0 0.00 0.00 0.00 65 1012.8
20240717061015 87 221 1.0 10.0 0.00 0.00 0.00 65 1012.7
20240717060514 87 214 2.0 10.0 0.00 0.00 0.00 65 1012.8
20240717060016 87 204 2.0 10.0 0.00 0.00 0.00 65 1012.8
20240717055514 87 222 0.0 10.0 0.00 0.00 0.00 65 1012.8
20240717055015 87 208 3.0 9.0 0.00 0.00 0.00 66 1012.9
20240717054521 87 223 1.0 10.0 0.00 0.00 0.00 65 1012.9
20240717054014 87 218 2.0 10.0 0.00 0.00 0.00 65 1012.8
20240717053514 87 217 2.0 10.0 0.00 0.00 0.00 65 1012.8
20240717053020 87 226 2.0 10.0 0.00 0.00 0.00 65 1012.7
20240717052512 87 225 2.0 8.0 0.00 0.00 0.00 65 1012.7
20240717052015 88 229 2.0 10.0 0.00 0.00 0.00 65 1012.6
20240717051532 88 231 3.0 10.0 0.00 0.00 0.00 64 1012.4
20240717051014 88 114 1.0 7.0 0.00 0.00 0.00 64 1012.4
20240717050512 88 133 1.0 7.0 0.00 0.00 0.00 64 1012.3
20240717050018 88 0 2.0 7.0 0.00 0.00 0.00 64 1012.3
20240717045514 88 209 2.0 7.0 0.00 0.00 0.00 63 1012.2
20240717045011 88 0 1.0 10.0 0.00 0.00 0.00 63 1012.2
20240717044517 88 179 2.0 10.0 0.00 0.00 0.00 63 1012.2
20240717044015 88 212 1.0 7.0 0.00 0.00 0.00 63 1012.2
20240717043516 88 235 1.0 12.0 0.00 0.00 0.00 62 1012.3
20240717043013 89 208 2.0 12.0 0.00 0.00 0.00 62 1012.3
20240717042514 89 168 2.0 8.0 0.00 0.00 0.00 62 1012.3
20240717042014 89 144 2.0 8.0 0.00 0.00 0.00 62 1012.2
20240717041515 89 185 3.0 10.0 0.00 0.00 0.00 62 1012.2
20240717041014 89 225 2.0 10.0 0.00 0.00 0.00 61 1012.2
20240717040514 89 217 2.0 7.0 0.00 0.00 0.00 61 1012.1
20240717040015 89 215 2.0 9.0 0.00 0.00 0.00 61 1012.1
20240717035513 89 210 2.0 10.0 0.00 0.00 0.00 61 1012.1
20240717035014 89 173 2.0 10.0 0.00 0.00 0.00 60 1012.0
20240717034527 90 0 2.0 12.0 0.00 0.00 0.00 60 1012.0
20240717034014 90 178 2.0 12.0 0.00 0.00 0.00 60 1012.0
20240717033512 90 197 2.0 12.0 0.00 0.00 0.00 60 1012.0
20240717033017 90 144 3.0 12.0 0.00 0.00 0.00 60 1012.0
20240717032512 90 212 2.0 8.0 0.00 0.00 0.00 59 1012.1
20240717032015 90 198 1.0 11.0 0.00 0.00 0.00 60 1011.9
20240717031525 90 226 3.0 11.0 0.00 0.00 0.00 59 1011.9
20240717031011 91 172 3.0 9.0 0.00 0.00 0.00 60 1011.8
20240717030515 91 222 3.0 7.0 0.00 0.00 0.00 59 1011.6
20240717030020 91 211 2.0 11.0 0.00 0.00 0.00 58 1011.6
20240717025514 91 0 2.0 12.0 0.00 0.00 0.00 58 1011.7
20240717025012 92 224 3.0 12.0 0.00 0.00 0.00 58 1011.7
20240717024517 92 0 1.0 12.0 0.00 0.00 0.00 56 1011.7
20240717024012 92 96 3.0 12.0 0.00 0.00 0.00 55 1011.8
20240717023513 93 219 3.0 11.0 0.00 0.00 0.00 52 1011.8
20240717023016 93 218 2.0 11.0 0.00 0.00 0.00 48 1011.7
20240717022514 93 148 1.0 6.0 0.00 0.00 0.00 46 1011.7
20240717022015 93 173 0.0 6.0 0.00 0.00 0.00 46 1011.7
20240717021514 93 107 0.0 4.0 0.00 0.00 0.00 46 1011.6
20240717021015 93 153 1.0 4.0 0.00 0.00 0.00 46 1011.7
20240717020514 93 123 0.0 5.0 0.00 0.00 0.00 46 1011.8
20240717020027 93 0 0.0 13.0 0.00 0.00 0.00 45 1011.7
20240717015515 94 173 2.0 13.0 0.00 0.00 0.00 45 1011.7
20240717015013 94 229 1.0 6.0 0.00 0.00 0.00 45 1011.6
20240717014512 94 186 1.0 6.0 0.00 0.00 0.00 46 1011.6
20240717014014 94 158 1.0 6.0 0.00 0.00 0.00 46 1011.7
20240717013512 94 214 0.0 6.0 0.00 0.00 0.00 45 1011.8
20240717013016 94 0 0.0 7.0 0.00 0.00 0.00 45 1011.9
20240717012512 95 114 1.0 8.0 0.00 0.00 0.00 45 1011.8
20240717012012 95 0 2.0 8.0 0.00 0.00 0.00 45 1011.8
20240717011519 95 200 2.0 10.0 0.00 0.00 0.00 45 1011.7
20240717011012 95 0 1.0 10.0 0.00 0.00 0.00 44 1011.6
20240717010512 95 181 1.0 8.0 0.00 0.00 0.00 44 1011.8
20240717010014 96 0 2.0 7.0 0.00 0.00 0.00 42 1011.7
20240717005512 96 156 2.0 7.0 0.00 0.00 0.00 41 1011.6
20240717005014 96 0 0.0 6.0 0.00 0.00 0.00 41 1011.6
20240717004516 96 0 0.0 6.0 0.00 0.00 0.00 40 1011.6
20240717004012 96 85 0.0 8.0 0.00 0.00 0.00 40 1011.5
20240717003512 96 0 1.0 8.0 0.00 0.00 0.00 40 1011.3
20240717003016 96 118 2.0 8.0 0.00 0.00 0.00 40 1011.4
20240717002515 97 206 1.0 7.0 0.00 0.00 0.00 39 1011.4
20240717002013 97 0 2.0 7.0 0.00 0.00 0.00 40 1011.3
20240717001515 97 202 2.0 7.0 0.00 0.00 0.00 39 1011.2
20240717001012 97 180 1.0 7.0 0.00 0.00 0.00 39 1011.1
20240717000512 97 0 2.0 10.0 0.00 0.00 0.00 38 1011.0
20240717000014 98 181 3.0 10.0 0.00 0.00 0.00 38 1010.9
20240716235511 98 0 1.0 8.0 0.00 0.00 0.00 38 1010.8
20240716235011 98 121 2.0 8.0 0.00 0.00 0.00 38 1010.7